TimeEST,TemperatureF,Dew PointF,Humidity,Sea Level PressureIn,VisibilityMPH,Wind Direction,Wind SpeedMPH,Gust SpeedMPH,PrecipitationIn,Events,Conditions,WindDirDegrees,DateUTC
12:22 AM,33.8,32.0,93,29.83,1.8,NW,8.1,-,0.00,,Overcast,310,2013-02-08 05:22:00
12:44 AM,33.8,32.0,93,29.83,1.2,NW,10.4,-,N/A,Snow,Light Snow,310,2013-02-08 05:44:00
12:54 AM,33.1,32.0,96,29.86,1.8,NW,10.4,-,0.01,,Overcast,310,2013-02-08 05:54:00
1:54 AM,33.1,32.0,96,29.86,1.5,NW,12.7,-,N/A,,Overcast,320,2013-02-08 06:54:00
2:21 AM,33.8,32.0,93,29.85,2.5,NW,13.8,-,N/A,,Overcast,310,2013-02-08 07:21:00
2:45 AM,33.8,30.2,87,29.86,3.0,NW,15.0,-,N/A,,Overcast,320,2013-02-08 07:45:00
2:54 AM,34.0,30.9,89,29.88,4.0,NW,16.1,23.0,N/A,,Overcast,320,2013-02-08 07:54:00
3:54 AM,33.1,30.0,89,29.90,5.0,NNW,19.6,-,N/A,,Overcast,330,2013-02-08 08:54:00
4:54 AM,33.1,28.0,82,29.94,9.0,NNW,23.0,35.7,N/A,,Overcast,340,2013-02-08 09:54:00
5:06 AM,32.0,28.4,87,29.93,10.0,NNW,16.1,32.2,N/A,,Overcast,340,2013-02-08 10:06:00
5:54 AM,32.0,27.0,82,29.99,8.0,NNW,19.6,27.6,0.00,,Overcast,340,2013-02-08 10:54:00
6:54 AM,30.9,25.0,79,30.03,7.0,North,18.4,25.3,0.00,,Overcast,350,2013-02-08 11:54:00
7:54 AM,30.0,25.0,82,30.07,10.0,NNW,17.3,-,N/A,,Overcast,340,2013-02-08 12:54:00
8:14 AM,30.2,24.8,80,30.06,10.0,North,18.4,-,N/A,,Overcast,350,2013-02-08 13:14:00
8:54 AM,30.9,25.0,79,30.10,10.0,North,17.3,25.3,N/A,,Overcast,360,2013-02-08 13:54:00
9:54 AM,30.0,24.1,79,30.15,10.0,North,17.3,-,N/A,,Overcast,350,2013-02-08 14:54:00
10:01 AM,30.2,24.8,80,30.13,10.0,North,16.1,-,N/A,,Overcast,360,2013-02-08 15:01:00
10:54 AM,30.9,24.1,76,30.18,10.0,North,16.1,-,N/A,,Overcast,350,2013-02-08 15:54:00
11:30 AM,30.2,23.0,75,30.18,10.0,North,17.3,-,N/A,,Overcast,360,2013-02-08 16:30:00
11:54 AM,30.0,21.9,72,30.22,10.0,North,15.0,23.0,N/A,,Overcast,10,2013-02-08 16:54:00
12:54 PM,30.0,23.0,75,30.23,10.0,NNW,15.0,-,N/A,,Overcast,340,2013-02-08 17:54:00
1:46 PM,32.0,23.0,69,30.21,10.0,North,13.8,-,N/A,,Scattered Clouds,350,2013-02-08 18:46:00
1:54 PM,30.9,21.9,69,30.24,10.0,North,16.1,-,N/A,,Partly Cloudy,350,2013-02-08 18:54:00
2:54 PM,32.0,21.9,66,30.25,10.0,North,17.3,-,N/A,,Partly Cloudy,350,2013-02-08 19:54:00
3:54 PM,32.0,21.9,66,30.27,10.0,North,16.1,-,N/A,,Scattered Clouds,360,2013-02-08 20:54:00
4:16 PM,32.0,21.2,64,30.25,10.0,North,15.0,-,N/A,,Mostly Cloudy,350,2013-02-08 21:16:00
4:54 PM,32.0,21.9,66,30.29,10.0,North,12.7,-,N/A,,Overcast,360,2013-02-08 21:54:00
5:04 PM,32.0,21.2,64,30.26,10.0,North,17.3,-,N/A,,Overcast,350,2013-02-08 22:04:00
5:54 PM,30.9,21.0,67,30.30,10.0,North,15.0,-,N/A,,Overcast,360,2013-02-08 22:54:00
6:54 PM,30.9,19.9,64,30.32,10.0,North,18.4,-,N/A,,Overcast,350,2013-02-08 23:54:00
7:54 PM,30.0,19.9,66,30.35,10.0,NNW,11.5,-,N/A,,Overcast,340,2013-02-09 00:54:00
8:54 PM,28.9,19.0,67,30.35,10.0,North,9.2,-,N/A,,Overcast,360,2013-02-09 01:54:00
9:54 PM,28.9,19.9,69,30.38,10.0,NNW,5.8,-,N/A,,Overcast,330,2013-02-09 02:54:00
10:44 PM,26.6,19.4,74,30.35,10.0,North,4.6,-,N/A,,Scattered Clouds,360,2013-02-09 03:44:00
10:54 PM,26.1,18.0,71,30.38,10.0,North,5.8,-,N/A,,Clear,10,2013-02-09 03:54:00
11:30 PM,26.6,17.6,69,30.35,10.0,NNE,3.5,-,N/A,,Mostly Cloudy,20,2013-02-09 04:30:00
11:54 PM,27.0,19.9,75,30.40,10.0,NNW,3.5,-,N/A,,Overcast,340,2013-02-09 04:54:00